LogoCoinalyze
    Ad-Free Version Hauptseite Märkte Finanzierungsraten
    Futures-Daten
    • Aggregierte Daten (Coins)
    • Einzelne Charts
    • Globale Charts
    Preisalarme
    TA
    Bitcoin Ethereum BNB Ripple Tron ZCash Dogecoin Monero UNUS SED LEO Chainlink Cardano Stellar Lumens Bitcoin Cash Litecoin Hedera Cronos Polkadot Ethereum Classic Algorand Quant Cosmos VeChain Dash Bitcoin SV BitTorrent Terra Decred Tezos Iota The Graph THETA Decentraland NEO Chiliz MultiversX Golem Basic Attention Token Horizen Qtum 0x DigiByte Beam FTX Token RIF Token Holo FUNToken Zilliqa Ontology aelf Nano Enjin Coin Ravencoin Siacoin Mask Network Verge Status WINk Waves IoTeX iExec RLC Power Ledger Steem Kyber Network Crystal Lisk Ark Ardor IOST WOO Network WAX Icon Storj Wanchain Loopring Bitcoin Diamond AdEx Bitcoin Gold Augur OmiseGO NEM MonaCoin BitShares Ren Komodo V Systems Nuls Mithril SOLVE Maker EOS Aion Nebulas HedgeTrade Bread Fetch.ai TomoChain Polygon Fantom Waltonchain GXChain Bytom Metaverse ETP MaidSafeCoin QASH
    Bestellen nach:
    Mehr
    • API
    • Kerzenformationen
    • Spenden
    • Kontakt
    • Sitemap
    • Privacy Policy
    • Disclaimer
    • Theme:
    Deutsch
    • English
    • Français
    • Русский
    • Türkçe
    • Nederlands
    • Português (BR)
    • Español
    • 한국어
    • 简体中文
    • 日本語
     
    Anmelden / Registrieren
    Markets/ Pepe/ PEPE zu EUR/ PEPEEUR Kraken
    Trades
    WL
    Chat
    Stat
    Neuigkeiten
    ⦷
    AAA
    0.000002993 22303331.10591000 07:04:46
    0.000002993 5458000.00000000 07:04:46
    0.000002992 5458000.00000000 07:04:46
    0.000002990 47987403.68000000 07:01:31
    0.000002990 48966738.45000000 07:00:50
    0.000002990 49966059.64000000 07:00:01
    0.000002988 1176325.86000000 06:57:29
    0.000002988 5458000.00000000 06:57:29
    0.000002985 131673342.89352000 06:49:05
    0.000002985 57879127.20273000 06:49:05
    0.000002985 158998521.31375000 06:49:05
    0.000002985 5458000.00000000 06:49:05
    0.000002990 58865814.10898000 06:44:00
    0.000002992 7094552.00000000 06:43:22
    0.000002991 9618594.00000000 06:43:21
    0.000002991 9579821.00000000 06:43:20
    0.000002991 9553600.00000000 06:43:19
    0.000002991 9486017.00000000 06:43:18
    0.000002991 9470989.00000000 06:43:17
    0.000002991 9457813.00000000 06:43:16
    0.000002991 9426540.00000000 06:43:15
    0.000002991 9417808.00000000 06:43:14
    0.000002991 9400734.00000000 06:43:13
    0.000002991 3934069.00000000 06:43:12
    0.000002991 5458000.00000000 06:43:12
    0.000002991 9384008.00000000 06:43:11
    0.000002991 9377376.00000000 06:43:10
    0.000002991 9359621.00000000 06:43:09
    0.000002991 9347350.00000000 06:43:08
    0.000002991 9342356.00000000 06:43:07
    0.000002991 9326219.00000000 06:43:06
    0.000002990 9320640.00000000 06:43:05
    0.000002990 9315592.00000000 06:43:04
    0.000002990 3847545.00000000 06:43:03
    0.000002990 5458000.00000000 06:43:03
    0.000002988 50985775.14000000 06:40:33
    0.000002979 52026301.17000000 06:36:12
    0.000002979 114806984.89425001 06:34:45
    0.000002979 5458000.00000000 06:34:45
    0.000002979 53088062.41000000 06:34:45
    0.000002977 56776673.38708000 06:34:44
    0.000002979 11187000.00000000 06:20:39
    0.000002979 55.83361000 06:19:45
    0.000002979 11187000.00000000 06:19:45
    0.000002980 36833249.92194000 06:19:34
    0.000002980 58627081.20804000 06:19:34
    0.000002980 5458000.00000000 06:19:34
    0.000002981 57951232.11902000 06:19:34
    0.000002981 5458000.00000000 06:19:34
    0.000002987 57173871.39985000 06:07:25
    0.000002990 28270081.85000000 05:59:00
    0.000002992 43527974.85000000 05:56:10
    0.000002990 7638429.06000000 05:55:37
    0.000002990 5458000.00000000 05:55:37
    0.000002997 43475785.76928000 05:49:53
    0.000002996 57637522.85590000 05:48:44
    0.000002994 8619003.34002000 05:41:43
    0.000002994 5458000.00000000 05:41:43
    0.000002995 5458000.00000000 05:41:43
    0.000002996 5458000.00000000 05:17:10
    0.000002990 8924601.55715000 05:13:56
    0.000002990 1949451.61740000 05:13:56
    0.000002990 1949451.61740000 05:13:56
    0.000002990 1949451.61740000 05:13:56
    0.000002990 1949451.61740000 05:13:56
    0.000002990 58052168.67469000 05:13:22
    0.000002991 99584000.00000000 05:11:27
    0.000002989 58266987.95180000 05:11:24
    0.000002989 60381594.05621000 05:11:24
    0.000002989 379319418.96651000 05:11:24
    0.000002987 2891630.35999000 05:11:24
    0.000002986 4175400.00000000 05:11:17
    0.000002985 2894152.99999000 05:11:17
    0.000002986 5458000.00000000 05:09:52
    0.000002986 57865215.65182000 05:09:52
    0.000002997 3000000.00000000 05:02:01
    0.000003005 54171492.26000000 04:46:39
    0.000003004 57749656.45805000 04:44:21
    0.000003004 5458000.00000000 04:44:21
    0.000003003 4973994.00000000 04:44:13
    0.000003001 57573197.37911000 04:34:27
    0.000002998 57608739.61853000 04:33:45
    0.000002997 55277032.92000000 04:33:24
    0.000002993 153356592.41652000 04:22:57
    0.000002988 58393176.03748000 04:13:59
    0.000003000 358578298.67502999 04:05:46
    0.000002999 57785542.51416000 03:57:54
    0.000003008 107724376.41052000 03:38:04
    0.000003008 153356592.41652000 03:38:03
    0.000003008 32748200.00000000 03:38:03
    0.000003012 1660577.88110000 03:31:24
    0.000003011 5457987.37960000 03:31:06
    0.000003021 57155101.00835000 03:25:59
    0.000003021 5458000.00000000 03:25:59
    0.000003022 5458000.00000000 03:25:59
    0.000003017 57234008.15601000 03:24:57
    0.000003017 5458000.00000000 03:24:57
    0.000003018 3675069.58250000 03:24:10
    0.000003018 5458000.00000000 03:24:10
    0.000003017 3930129.26748000 03:19:48
    Abmelden
    AAA
    Hilfe
    🙂 🤣 😎 🤗 😛 😉 😜 🤑 🤔 😑 😴 😕 🙃 😲 😇 🙁 😢 😬 😟 😠 🕺 🏃 💪 ✌ 👌 👍 👎 👏 👋 🤝 🍺 🍻 🐋 🐟 🦈 🗽 🚄 ✈ 🛑 🚀 🏦 🌚 ⭐ 🌞 ⚡ 🏆 💰 💲 🔨 ❓ ❗ 💯 🔶 🏁
    ☺
    Anmelden oder Registrieren zum Chatten
    24 Stunden
    Veränderung
    -1.77%
    Volumen
    44,580,978,611
    Hoch
    0.000003055
    Tief
    0.000002960
    7 Tage
    Veränderung
    -8.36%
    Volumen
    490,258,530,415
    Hoch
    0.000003444
    Tief
    0.000002902
    30 Tage
    Veränderung
    +19.15%
    Volumen
    2,242,304,892,001
    Hoch
    0.000003891
    Tief
    0.000002190
    Pepe price rallies 25% as whale demand and futures interest surge
    Key takeaways Pepe has gained 25% this week, including a combined 22% advance over the previous two days. Seven whale transactions worth more than $1 million each occurred Thursday, the highest...
    coinjournal.net
    Aug 21, 2026 08:41
    PEPE Supply on Exchanges Just Took a Massive Hit – What’s Next?
    A drop in PEPE exchange balances has added to bullish expectations despite muted trader interest.
    cryptopotato.com
    Aug 6, 2026 20:02
    PEPE Exchange Outflows Hit Nearly 2-Year High as Whales Accumulate
    Pepe (PEPE) recorded its largest single-day exchange outflow since November 2024, with 4.54 trillion tokens leaving trading platforms, signaling that holders are moving supply away from immediate...
    beincrypto.com
    Aug 6, 2026 04:57
    Meme Coin Based on White House Shooter Conspiracy Rallies 320%
    $HENRY surged 300% after a 2023 Pepe tweet appeared to name the White House shooter, fueling a viral time-travel meme. The post Meme Coin Based on White House Shooter Conspiracy Rallies 320%...
    beincrypto.com
    Apr 27, 2026 16:11
    PEPE surges 4% as market sentiment improves, eyes Key resistance breakout
    Key takeaways Pepe extends gains on Wednesday, stretching its rally from the 50-day EMA. Derivatives data show heightened retail activity as risk-on sentiment returns to the market. Pepe (PEPE) is...
    coinjournal.net
    Apr 22, 2026 11:44
    Why The PEPE Price Could Stage A 55X Rally To Reach New $0.0001 ATH
    The PEPE price has now started to edge back into bullish conversations after the recent inflows into the crypto market. The last time PEPE’s weekly chart printed the kind of structure now...
    newsbtc.com
    Apr 21, 2026 15:30
    Pepe (PEPE) surges 9%, drawing interest from whales
    Key takeaways PEPE is up 9% in the last 24 hours, making it one of the best performers among the top 50 cryptocurrencies by market cap. The rally comes amid renewed interest from whales and retail...
    coinjournal.net
    Apr 16, 2026 07:40
    Murad Says SPX6900 (SPX) Is Primed for a Rally — Is He Right This Time?
    Crypto influencer Murad Mahmudov claims SPX6900 (SPX) is stabilizing at the same market cap level where Dogecoin (DOGE) and Pepe (PEPE) consolidated before their explosive rallies. The...
    beincrypto.com
    Apr 5, 2026 21:36
    The Shiba Inu Of This Cycle: Analyst Shares Why It Is Better To Buy PEPE Now
    In the bull market cycle of 2021-2022, the Shiba Inu meme coin made waves in a way that changed the face of meme coins forever. This came after Dogecoin’s initial 36,000% rally, and Shiba Inu...
    newsbtc.com
    Apr 4, 2026 07:30
    PEPE Explodes by 18% Amid Altcoin Rally, BTC Tapped $74K: Market Watch
    The frog-themed meme coin is today's biggest gainer, followed by TAO, DOT, and BONK.
    cryptopotato.com
    Mar 16, 2026 10:56
    Should PEPE traders brace for volatility as short squeeze potential builds?
    The memecoin market has seen its collective market capitalization drop by 48% over the past year, and 6.9% over the past month, according to CoinMarketCap. According to Glassnode, the memecoin...
    ambcrypto.com
    Mar 7, 2026 18:00
    Geben Sie einfach das Kommando im Chat ein. Ersetzen Sie dabei nick1 durch den jeweiligen Nick.
    • /ignore nick1 Einen Chat-User ignorieren
    • /unignore nick1 Einen Chat-User nicht mehr ignorieren
    • /ignorelist Ignorierte Chat-User anzeigen